[Date Prev][Date Next][Thread Prev][Thread Next] - [Date Index][Thread Index][Author Index]

2 Line ISS Keps 12-11



ISS
1 25544U 98067A   01345.16677822  .00047819  00000-0  51999-3 0  8244
2 25544  51.6385 278.1690 0007376  76.7637  62.1352 15.62936771174707


----
Via the sarex mailing list at AMSAT.ORG courtesy of AMSAT-NA.
To unsubscribe, send "unsubscribe sarex" to Majordomo@amsat.org



AMSAT Top AMSAT Home